Miscellaneous Local Product
Issued by NWS Hastings, NE

Home | Current Version | Previous Version | Graphics & Text | Print | Product List | Glossary On
Versions: 1 2 3 4 5 6 7 8 9 10 11 12 13 14 15 16 17 18 19 20 21 22 23 24 25 26 27 28 29 30 31 32 33 34 35 36 37 38 39 40 41 42 43 44 45 46 47 48 49 50
000
AXUS43 KGID 171802
MISGRI

GID CWA HOURLY WEATHER ROUNDUP
NATIONAL WEATHER SERVICE HASTINGS NE
100 PM CDT THU AUG 17 2017

NOTE: "FAIR" INDICATES FEW OR NO CLOUDS BELOW 12,000 FEET WITH NO
SIGNIFICANT WEATHER AND/OR OBSTRUCTIONS TO VISIBILITY.

...SOUTH CENTRAL NEBRASKA...

CITY           SKY/WX    TMP DP  RH WIND       PRES   REMARKS
GRAND ISLAND   SUNNY     80  60  50 W13       30.01F
HASTINGS       SUNNY     79  60  52 W12       30.03F
KEARNEY        SUNNY     79  60  52 SW12      30.03F
ORD            SUNNY     80  56  43 SW8       29.99F
YORK           SUNNY     75  63  64 NW9       30.00F
AURORA         SUNNY     78  58  49 W9        30.01S
LEXINGTON      SUNNY     80  56  44 W9        30.04F
HOLDREGE       SUNNY     77  59  53 W9        30.05S
HEBRON         SUNNY     81  56  42 NW8       30.01F

...NEBRASKA PANHANDLE...

CITY           SKY/WX    TMP DP  RH WIND       PRES   REMARKS
CHADRON        SUNNY     84  52  33 N6        29.96F
ALLIANCE       SUNNY     82  54  37 SW13      30.03F
SCOTTSBLUFF    SUNNY     82  50  32 NW8       30.04F
SIDNEY         SUNNY     82  54  37 SW12      30.08F

...WESTERN AND NORTH CENTRAL NEBRASKA...

CITY           SKY/WX    TMP DP  RH WIND       PRES   REMARKS
VALENTINE      SUNNY     85  49  28 SW5       29.96F
AINSWORTH      SUNNY     81  56  42 SW5       29.99S
ONEILL         SUNNY     76  58  53 CALM      29.99F
BROKEN BOW     SUNNY     82  58  43 W8        30.02F
IMPERIAL       SUNNY     84  54  35 S12G20    30.06F
NORTH PLATTE   SUNNY     82  58  43 SW7       30.03F
MCCOOK         SUNNY     83  55  38 SW8       30.04F

...EASTERN NEBRASKA...

CITY           SKY/WX    TMP DP  RH WIND       PRES   REMARKS
NORFOLK        SUNNY     77  57  50 NW8       29.95S
SO SIOUX CITY  SUNNY     77  61  57 NW22      29.90S
TEKAMAH        SUNNY     78  60  53 NW15G26   29.92S
COLUMBUS       SUNNY     76  61  59 NW10      29.98F
ALBION         SUNNY     80  58  47 NW9       29.99S
OMAHA EPPLEY   MOSUNNY   80  59  48 NW21      29.93S
OFFUTT AFB     SUNNY     80  56  42 NW17G24   29.93S
MILLARD        SUNNY     79  60  52 W15G21    29.94S
LINCOLN        SUNNY     80  57  45 NW14      29.98S
NEBRASKA CITY  SUNNY     79  59  50 NW15G24   29.96S
BEATRICE       SUNNY     82  58  43 W14       29.99F
FALLS CITY     SUNNY     79  59  50 NW21G26   29.96R

...NORTHERN KANSAS...

CITY           SKY/WX    TMP DP  RH WIND       PRES   REMARKS
GOODLAND       SUNNY     79  59  50 S14G20    30.10F
HILL CITY      SUNNY     84  48  28 S8        30.06F
NORTON         CLEAR     82  45  26 S10       30.05F
PHILLIPSBURG   SUNNY     84  52  32 W7        30.04F
SMITH CENTER   PTSUNNY   81  61  50 W6        30.03F
HAYS           PTSUNNY   82  52  35 CALM      30.05F
RUSSELL        CLOUDY    84  51  31 VRB6      30.03F
CONCORDIA      SUNNY     83  59  44 W8        30.02S
SALINA         SUNNY     87  56  34 N12       30.02F
TOPEKA         SUNNY     83  61  47 NW10      29.98F



USA.gov is the U.S. government's official web portal to all federal, state and local government web resources and services.